Weather in Smallingerland

Netherlands     53°06′21″N   6°05′55″E
temp.,
°C
wind,
m/s
gust,
m/s
humid.,
%
clouds,
%
prec.,
mm/h
press.,
hPa
HPBL,
m
26 june, sun
sun2623:00+16ene2598100 2.6 1012132
02:00+17s1292100 4.1 101218
05:00+16sw4896100 0.0 1012341
08:00+17sw4690100 0.0 1013469
11:00+19sw576896 0.0 1015926
14:00+20sw566139 0.0 10161058
17:00+21ssw3555100 0.0 10161519
20:00+20s116878 0.1 101639
27 june, mon
mon2723:00+15ne3590100 0.1 101689
02:00+15sse3491100 0.1 101686
05:00+15ese2391100 0.0 101590
08:00+15e1291100 0.0 1015123
11:00+18ssw2380100 0.3 1015301
14:00+20wsw3466100 1.4 1016844
17:00+18wnw3572100 0.0 1017310
20:00+18w35720 0.1 1018547
28 june, tue
tue2823:00+13wsw228249 0.0 102014
02:00+11ssw22853 0.0 102017
05:00+11s34845 0.0 102165
08:00+15ssw46790 0.0 1021256
11:00+19sw57570 0.0 10211103
14:00+21sw57511 0.0 10201755
17:00+22wsw35481 0.0 10191616
20:00+20n356797 0.0 1018185
29 june, wed
wed2923:00+14ene488224 0.0 1018127
02:00+14ese478146 0.0 1017106
05:00+14ese35765 0.0 101679
08:00+18se36765 0.0 1016208
11:00+24s3558100 0.0 1016654
14:00+26ssw3548100 0.0 10152016
17:00+26wsw334919 0.0 10141158
20:00+22n567259 0.0 1014261
30 june, thu
thu3023:00+17nne358211 0.0 101570
02:00+17ene34921 0.0 101460
05:00+17ese34870 0.0 101365
08:00+21ese36724 0.0 1013210
11:00+25ese456059 0.0 1012663
14:00+26ese5863100 0.1 1011693
17:00+28e37512 0.0 10101171
20:00+26e7125820 0.0 1008510